Погода в Седельницах

Россия / Ивановская область     57°08′36″N   40°32′56″E
темп.,
°C
ветер,
м/с
пор.,
м/с
влажн.,
%
обл.,
%
осадки,
мм/ч
давл.,
гПа
погр.,
м
18 мая, вт
вт1800:00+16вюв4119299 0.3 1013192
03:00+16юв41193100 0.3 1013197
06:00+17юв41185100 0.0 1013209
09:00+22юв58645 0.0 1013371
12:00+26юв5104885 0.0 10131354
15:00+27вюв694736 0.0 10131642
18:00+24вюв611605 0.0 1012454
21:00+20вюв616705 0.0 1012454
19 мая, ср
ср1900:00+18юв515771 0.0 1012317
03:00+17вюв515840 0.0 1012317
06:00+17юв6167812 0.0 1012437
09:00+23юв615645 0.0 1011668
12:00+26вюв713500 0.0 10111643
15:00+27вюв812492 0.0 10101869
18:00+24юв8146147 0.0 1010861
21:00+21вюв7167189 0.0 1010647
20 мая, чт
чт2000:00+19юв6167799 0.0 1010571
03:00+18юв512799 0.0 1010386
06:00+17вюв5148258 0.0 1010425
09:00+21вюв79651 0.0 1009637
12:00+24юв8115835 0.0 10081700
15:00+22ююв7970100 2.3 10081227
18:00+16ююв612865 2.6 1008625
21:00+15юв4119411 2.6 1009342
21 мая, пт
пт2100:00+13юв410955 0.1 1008254
03:00+12юв4109652 0.1 1007291
06:00+13ююв5109499 0.0 1006449
09:00+14ююв698654 0.1 1006786
12:00+14ю6108392 0.8 1006911
15:00+12ююз71083100 1.4 1008999
18:00+11ююз61087100 0.1 1009813
21:00+10зюз5109058 0.2 1012617
22 мая, сб
сб2200:00+11зюз61184100 0.0 1014810
03:00+8юз4991100 0.0 1017263
06:00+10ююз410864 0.0 1018300
09:00+15юз57633 0.0 1019897
12:00+17зюз575087 0.0 10191965
15:00+18зюз4546100 0.0 10191881
18:00+16ююз2464100 0.0 1019149
21:00+12ююз3788100 0.0 1020167